Weather History for KRCR - January, 2014

Change the Weather History Date:

Sunday, January 19, 2014

  Actual Average Record
Temperature  
Mean Temperature 24 °F -  
Max Temperature 37 °F 29 °F 42 °F (2015)
Min Temperature 10 °F 13 °F 10 °F (2014)
Degree Days  
Heating Degree Days 42    
Moisture  
Dew Point 19 °F    
Average Humidity 79    
Maximum Humidity 93    
Minimum Humidity 64    
Precipitation  
Precipitation 0.00 in - - ()
Sea Level Pressure  
Sea Level Pressure 29.75 in    
Wind  
Wind Speed 8 mph (SW)    
Max Wind Speed 18 mph    
Max Gust Speed 31 mph    
Visibility 7 miles    
Events Snow    
Averages and records for this station are not official NWS values.
T = Trace of Precipitation, MM = Missing Value Source: NWS Daily Summary

Daily Weather History Graph

Daily Weather History Graph

Search for Another Location

Airport or City:

Trip Planner

Search our weather history database for the weather conditions in past years. The results will help you decide how hot, cold, wet, or windy it might be!

Date:

Astronomy

Jan. 19, 2014 Rise Set
Actual Time 8:05 AM EST 5:45 PM EST
Civil Twilight 7:35 AM EST 6:15 PM EST
Nautical Twilight 7:01 AM EST 6:49 PM EST
Astronomical Twilight 6:29 AM EST 7:22 PM EST
Moon 9:25 PM EST (1/19) 9:33 AM EST (1/19)
Length of Visible Light 10h 40m
Length of Day
9h 40m
Waning Gibbous, 89% of the Moon is Illuminated
Jan 19
Waning Gibbous
Jan 24
Last Quarter
Jan 30
New
Feb 6
First Quarter
Feb 14
Full

Hourly Weather History & Observations

Time (EST) Temp. Windchill Dew Point Humidity Pressure Visibility Wind Dir Wind Speed Gust Speed Precip Events Conditions
12:15 AM 12.2 °F - 8.6 °F 85% 29.79 in 0.8 mi Calm Calm - N/A   Mist
12:35 AM 12.2 °F 6.1 °F 8.6 °F 85% 29.80 in 2.0 mi NNW 3.5 mph - N/A   Mist
12:55 AM 12.2 °F 4.3 °F 8.6 °F 85% 29.80 in 3.0 mi NNW 4.6 mph - N/A   Mist
1:15 AM 14.0 °F 8.2 °F 12.2 °F 93% 29.81 in 5.0 mi NNW 3.5 mph - N/A   Mostly Cloudy
1:35 AM 12.2 °F - 8.6 °F 85% 29.80 in 5.0 mi Calm Calm - N/A   Mostly Cloudy
1:55 AM 10.4 °F - 8.6 °F 92% 29.80 in 1.2 mi Calm Calm - N/A   Scattered Clouds
2:15 AM 12.2 °F - 8.6 °F 85% 29.80 in 2.5 mi Calm Calm - N/A   Mist
2:35 AM 12.2 °F - 8.6 °F 85% 29.81 in 5.0 mi Calm Calm - N/A   Scattered Clouds
2:55 AM 17.6 °F 10.7 °F 14.0 °F 86% 29.83 in 5.0 mi WNW 4.6 mph - N/A   Overcast
3:15 AM 17.6 °F 10.7 °F 14.0 °F 86% 29.83 in 5.0 mi WNW 4.6 mph - N/A   Overcast
3:35 AM 17.6 °F 12.3 °F 14.0 °F 86% 29.84 in 2.5 mi West 3.5 mph - N/A Snow Light Snow
3:55 AM 17.6 °F - 14.0 °F 86% 29.84 in 7.0 mi Calm Calm - N/A   Overcast
4:15 AM 17.6 °F - 14.0 °F 86% 29.83 in 7.0 mi Calm Calm - N/A   Overcast
4:35 AM 17.6 °F 10.7 °F 15.8 °F 93% 29.84 in 7.0 mi WSW 4.6 mph - N/A   Overcast
4:55 AM 17.6 °F 12.3 °F 15.8 °F 93% 29.85 in 7.0 mi WSW 3.5 mph - N/A   Overcast
5:15 AM 19.4 °F 11.5 °F 17.6 °F 93% 29.86 in 7.0 mi West 5.8 mph - N/A   Mostly Cloudy
5:35 AM 19.4 °F 10.4 °F 17.6 °F 93% 29.86 in 7.0 mi WSW 6.9 mph - N/A   Mostly Cloudy
5:55 AM 19.4 °F 9.5 °F 17.6 °F 93% 29.86 in 7.0 mi WSW 8.1 mph - N/A   Overcast
6:15 AM 19.4 °F 8.6 °F 17.6 °F 93% 29.87 in 5.0 mi West 9.2 mph - N/A   Overcast
6:35 AM 19.4 °F 7.9 °F 15.8 °F 86% 29.87 in 4.0 mi West 10.4 mph - N/A   Overcast
6:55 AM 17.6 °F 6.4 °F 14.0 °F 86% 29.85 in 3.0 mi WSW 9.2 mph 19.6 mph N/A   Overcast
7:15 AM 17.6 °F 5.7 °F 14.0 °F 86% 29.85 in 4.0 mi SW 10.4 mph - N/A Snow Light Snow
7:35 AM 17.6 °F 4.3 °F 14.0 °F 86% 29.85 in 3.0 mi SW 12.7 mph 18.4 mph N/A Snow Light Snow
7:55 AM 15.8 °F 3.4 °F 12.2 °F 86% 29.85 in 4.0 mi SW 10.4 mph - N/A Snow Light Snow
8:15 AM 14.0 °F -0.2 °F 12.2 °F 93% 29.86 in 4.0 mi SW 12.7 mph - N/A Snow Light Snow
8:35 AM 14.0 °F 2.0 °F 12.2 °F 93% 29.86 in 3.0 mi WSW 9.2 mph - N/A Snow Light Snow
8:55 AM 14.0 °F 1.2 °F 12.2 °F 93% 29.84 in 5.0 mi SW 10.4 mph 16.1 mph N/A Snow Light Snow
9:15 AM 15.8 °F 3.4 °F 12.2 °F 86% 29.85 in 3.0 mi SW 10.4 mph - N/A Snow Light Snow
9:35 AM 17.6 °F 5.7 °F 14.0 °F 86% 29.85 in 2.0 mi SW 10.4 mph - N/A Snow Light Snow
9:55 AM 19.4 °F 7.2 °F 15.8 °F 86% 29.84 in 5.0 mi SW 11.5 mph - N/A Snow Light Snow
10:15 AM 19.4 °F 5.5 °F 17.6 °F 93% 29.84 in 0.8 mi SSW 15.0 mph 21.9 mph N/A Snow Light Snow
10:35 AM 21.2 °F 7.8 °F 17.6 °F 86% 29.85 in 1.8 mi SW 15.0 mph 20.7 mph N/A Snow Light Snow
10:55 AM 21.2 °F 7.8 °F 17.6 °F 86% 29.84 in 2.0 mi SW 15.0 mph 19.6 mph N/A Snow Light Snow
11:15 AM 23.0 °F 9.6 °F 17.6 °F 80% 29.83 in 1.2 mi SW 16.1 mph 19.6 mph N/A Snow Light Snow
11:35 AM 24.8 °F 11.9 °F 17.6 °F 74% 29.82 in 2.5 mi SW 16.1 mph 24.2 mph N/A Snow Light Snow
11:55 AM 26.6 °F 13.8 °F 19.4 °F 74% 29.81 in 3.0 mi SW 17.3 mph 23.0 mph N/A Snow Light Snow
12:15 PM 26.6 °F 14.3 °F 19.4 °F 74% 29.80 in 4.0 mi SW 16.1 mph 27.6 mph N/A   Haze
12:35 PM 28.4 °F 16.2 °F 19.4 °F 69% 29.79 in 4.0 mi SW 17.3 mph 31.1 mph N/A   Haze
12:55 PM 28.4 °F 15.8 °F 19.4 °F 69% 29.77 in 5.0 mi SW 18.4 mph 31.1 mph N/A   Haze
1:15 PM 30.2 °F 18.5 °F 19.4 °F 64% 29.75 in 10.0 mi SW 17.3 mph 24.2 mph N/A   Clear
1:35 PM 30.2 °F 18.1 °F 21.2 °F 69% 29.74 in 7.0 mi SW 18.4 mph 26.5 mph N/A   Clear
1:55 PM 30.2 °F 18.5 °F 21.2 °F 69% 29.73 in 10.0 mi SW 17.3 mph 23.0 mph N/A   Clear
2:15 PM 32.0 °F 20.8 °F 21.2 °F 64% 29.72 in 7.0 mi SW 17.3 mph 27.6 mph N/A   Clear
2:35 PM 30.2 °F 18.9 °F 21.2 °F 69% 29.71 in 10.0 mi SSW 16.1 mph 24.2 mph N/A   Clear
2:55 PM 32.0 °F 22.1 °F 23.0 °F 69% 29.70 in 10.0 mi SW 13.8 mph 21.9 mph N/A   Clear
3:15 PM 32.0 °F 21.2 °F 23.0 °F 69% 29.69 in 10.0 mi SSW 16.1 mph 23.0 mph N/A   Clear
3:35 PM 32.0 °F 22.5 °F 23.0 °F 69% 29.69 in 10.0 mi SW 12.7 mph 20.7 mph N/A   Clear
3:55 PM 32.0 °F 22.1 °F 23.0 °F 69% 29.69 in 10.0 mi SW 13.8 mph 19.6 mph N/A   Clear
4:15 PM 32.0 °F 23.0 °F 23.0 °F 69% 29.68 in 10.0 mi SW 11.5 mph 17.3 mph N/A   Clear
4:35 PM 32.0 °F 24.2 °F 23.0 °F 69% 29.68 in 10.0 mi SW 9.2 mph 18.4 mph N/A   Clear
4:55 PM 32.0 °F 24.2 °F 23.0 °F 69% 29.68 in 10.0 mi SW 9.2 mph - N/A   Clear
5:15 PM 32.0 °F 23.0 °F 24.8 °F 75% 29.67 in 10.0 mi SW 11.5 mph - N/A   Clear
5:35 PM 32.0 °F 23.0 °F 24.8 °F 75% 29.66 in 10.0 mi SW 11.5 mph 16.1 mph N/A   Clear
5:55 PM 32.0 °F 22.1 °F 24.8 °F 75% 29.65 in 10.0 mi SW 13.8 mph - N/A   Clear
6:15 PM 32.0 °F 23.0 °F 26.6 °F 80% 29.65 in 10.0 mi SW 11.5 mph 21.9 mph N/A   Clear
6:35 PM 32.0 °F 22.1 °F 26.6 °F 80% 29.63 in 10.0 mi SW 13.8 mph 23.0 mph N/A   Clear
6:55 PM 33.8 °F 24.8 °F 26.6 °F 75% 29.63 in 10.0 mi SW 12.7 mph 19.6 mph N/A   Clear
7:15 PM 33.8 °F 24.3 °F 26.6 °F 75% 29.63 in 10.0 mi SW 13.8 mph 19.6 mph N/A   Clear
7:55 PM 33.8 °F 24.3 °F 26.6 °F 75% 29.63 in 10.0 mi SW 13.8 mph 19.6 mph N/A   Clear
8:15 PM 33.8 °F 23.9 °F 26.6 °F 75% 29.64 in 10.0 mi SW 15.0 mph 20.7 mph N/A   Clear
8:35 PM 33.8 °F 23.9 °F 26.6 °F 75% 29.63 in 10.0 mi SW 15.0 mph 20.7 mph N/A   Clear
8:55 PM 35.6 °F 25.2 °F 26.6 °F 70% 29.62 in 10.0 mi SW 18.4 mph 24.2 mph N/A   Clear
9:15 PM 35.6 °F 25.9 °F 26.6 °F 70% 29.62 in 10.0 mi SW 16.1 mph 21.9 mph N/A   Clear
9:35 PM 35.6 °F 26.6 °F 26.6 °F 70% 29.61 in 10.0 mi SW 13.8 mph 20.7 mph N/A   Clear
9:55 PM 35.6 °F 25.9 °F 26.6 °F 70% 29.60 in 10.0 mi WSW 16.1 mph 26.5 mph N/A   Clear
10:15 PM 35.6 °F 25.5 °F 26.6 °F 70% 29.60 in 10.0 mi WSW 17.3 mph 26.5 mph N/A   Clear
10:35 PM 35.6 °F 26.2 °F 26.6 °F 70% 29.60 in 10.0 mi WSW 15.0 mph 24.2 mph N/A   Clear
10:55 PM 35.6 °F 26.2 °F 28.4 °F 75% 29.59 in 10.0 mi WSW 15.0 mph 24.2 mph N/A   Clear
11:15 PM 35.6 °F 26.2 °F 28.4 °F 75% 29.58 in 10.0 mi SW 15.0 mph 21.9 mph N/A   Clear
11:35 PM 37.4 °F 28.5 °F 28.4 °F 70% 29.58 in 10.0 mi SW 15.0 mph 21.9 mph N/A   Clear
11:55 PM 37.4 °F 28.2 °F 28.4 °F 70% 29.57 in 10.0 mi SW 16.1 mph 24.2 mph N/A   Clear